Hourly Weather Barnaul

Today, 26 September, Saturday

Time Temperature Precipitation Wind Pressure Humidity
00:00 +5°C° 0 mm 3 mps 743 mmHg 92%
01:00 +6°C° 0.4 mm 2 mps 743 mmHg 92%
02:00 +6°C° 0.4 mm 2 mps 744 mmHg 92%
03:00 +6°C° 0.4 mm 2 mps 744 mmHg 91%
04:00 +6°C° 0.5 mm 2 mps 744 mmHg 92%
05:00 +6°C° 0.5 mm 2 mps 744 mmHg 93%
06:00 +6°C° 0 mm 2 mps 745 mmHg 93%
07:00 +6°C° 0.5 mm 2 mps 745 mmHg 93%
08:00 +7°C° 0.5 mm 2 mps 745 mmHg 92%
09:00 +7°C° 0.5 mm 3 mps 745 mmHg 92%
10:00 +7°C° 0.6 mm 3 mps 746 mmHg 89%
11:00 +7°C° 0.6 mm 3 mps 746 mmHg 87%
12:00 +6°C° 0.6 mm 4 mps 747 mmHg 84%
13:00 +7°C° 0.3 mm 3 mps 747 mmHg 82%
14:00 +8°C° 0.3 mm 3 mps 747 mmHg 80%
15:00 +8°C° 0.3 mm 2 mps 747 mmHg 78%
16:00 +7°C° 0.1 mm 2 mps 748 mmHg 79%
17:00 +7°C° 0.1 mm 2 mps 748 mmHg 80%
18:00 +7°C° 0.1 mm 2 mps 749 mmHg 81%
19:00 +6°C° 0 mm 2 mps 749 mmHg 81%
20:00 +5°C° 0 mm 2 mps 749 mmHg 81%
21:00 +5°C° 0 mm 2 mps 750 mmHg 81%
22:00 +4°C° 0 mm 2 mps 750 mmHg 82%
23:00 +5°C° 0 mm 1 mps 750 mmHg 83%

Tomorrow, 27 September, Sunday

Time Temperature Precipitation Wind Pressure Humidity
00:00 +5°C° 0 mm 1 mps 750 mmHg 84%
01:00 +5°C° 0 mm 1 mps 750 mmHg 85%
02:00 +4°C° 0 mm 2 mps 750 mmHg 86%
03:00 +4°C° 0 mm 2 mps 750 mmHg 87%
04:00 +4°C° 0 mm 2 mps 751 mmHg 88%
05:00 +4°C° 0 mm 2 mps 751 mmHg 88%
06:00 +3°C° 0 mm 2 mps 751 mmHg 89%
07:00 +4°C° 0 mm 2 mps 751 mmHg 86%
08:00 +5°C° 0 mm 2 mps 751 mmHg 83%
09:00 +5°C° 0 mm 3 mps 751 mmHg 81%
10:00 +7°C° 0 mm 3 mps 751 mmHg 76%
11:00 +8°C° 0 mm 3 mps 752 mmHg 70%
12:00 +10°C° 0 mm 3 mps 752 mmHg 65%
13:00 +10°C° 0 mm 3 mps 752 mmHg 63%
14:00 +10°C° 0 mm 3 mps 751 mmHg 61%
15:00 +10°C° 0 mm 3 mps 751 mmHg 59%
16:00 +10°C° 0 mm 3 mps 751 mmHg 61%
17:00 +9°C° 0 mm 2 mps 751 mmHg 63%
18:00 +9°C° 0 mm 2 mps 752 mmHg 65%
19:00 +8°C° 0 mm 2 mps 752 mmHg 66%
20:00 +8°C° 0 mm 2 mps 752 mmHg 67%
21:00 +8°C° 0 mm 2 mps 752 mmHg 68%
22:00 +7°C° 0 mm 2 mps 751 mmHg 71%
23:00 +6°C° 0 mm 2 mps 751 mmHg 75%

Day after tomorrow, 28 September, Monday

Time Temperature Precipitation Wind Pressure Humidity
00:00 +5°C° 0 mm 2 mps 751 mmHg 78%
01:00 +4°C° 0 mm 2 mps 751 mmHg 79%
02:00 +4°C° 0 mm 2 mps 751 mmHg 81%
03:00 +3°C° 0 mm 2 mps 751 mmHg 82%
04:00 +3°C° 0 mm 2 mps 751 mmHg 83%
05:00 +3°C° 0 mm 2 mps 751 mmHg 84%
06:00 +3°C° 0 mm 2 mps 751 mmHg 85%
07:00 +4°C° 0 mm 2 mps 750 mmHg 82%
08:00 +5°C° 0 mm 2 mps 750 mmHg 79%
09:00 +7°C° 0 mm 2 mps 750 mmHg 75%
10:00 +8°C° 0 mm 2 mps 750 mmHg 69%
11:00 +9°C° 0 mm 2 mps 750 mmHg 63%
12:00 +10°C° 0 mm 3 mps 750 mmHg 57%
13:00 +10°C° 0 mm 2 mps 750 mmHg 56%
14:00 +10°C° 0 mm 2 mps 750 mmHg 55%
15:00 +10°C° 0 mm 2 mps 749 mmHg 55%
16:00 +9°C° 0 mm 2 mps 749 mmHg 57%
17:00 +9°C° 0 mm 2 mps 749 mmHg 59%
18:00 +8°C° 0 mm 2 mps 749 mmHg 62%
19:00 +9°C° 0 mm 1 mps 750 mmHg 62%
20:00 +9°C° 0 mm 1 mps 750 mmHg 62%
21:00 +9°C° 0 mm 1 mps 750 mmHg 62%
22:00 +8°C° 0 mm 1 mps 750 mmHg 63%
23:00 +7°C° 0 mm 2 mps 749 mmHg 64%

29 September, Tuesday

Time Temperature Precipitation Wind Pressure Humidity
00:00 +7°C° 0 mm 2 mps 749 mmHg 65%
01:00 +7°C° 0 mm 3 mps 749 mmHg 67%
02:00 +5°C° 0 mm 3 mps 749 mmHg 69%
03:00 +5°C° 0 mm 3 mps 749 mmHg 72%
04:00 +5°C° 0 mm 4 mps 748 mmHg 71%
05:00 +5°C° 0 mm 4 mps 748 mmHg 71%
06:00 +5°C° 0 mm 5 mps 748 mmHg 71%
07:00 +5°C° 0.4 mm 5 mps 748 mmHg 75%
08:00 +5°C° 0.4 mm 5 mps 747 mmHg 79%
09:00 +4°C° 0.4 mm 6 mps 747 mmHg 83%
10:00 +4°C° 1 mm 6 mps 747 mmHg 86%
11:00 +4°C° 1 mm 6 mps 747 mmHg 88%
12:00 +4°C° 1 mm 6 mps 746 mmHg 90%
13:00 +5°C° 1.1 mm 5 mps 747 mmHg 91%
14:00 +6°C° 1.1 mm 5 mps 747 mmHg 93%
15:00 +6°C° 1.1 mm 4 mps 747 mmHg 94%
16:00 +6°C° 0.7 mm 5 mps 747 mmHg 92%
17:00 +4°C° 0.7 mm 6 mps 747 mmHg 91%
18:00 +4°C° 0.7 mm 6 mps 748 mmHg 89%
19:00 +3°C° 0 mm 7 mps 748 mmHg 86%
20:00 +3°C° 0 mm 7 mps 749 mmHg 83%
21:00 +2°C° 0 mm 7 mps 750 mmHg 79%
22:00 0°C° 0 mm 7 mps 750 mmHg 79%
23:00 -1°C° 0 mm 6 mps 750 mmHg 79%

30 September, Wednesday

Time Temperature Precipitation Wind Pressure Humidity
00:00 -1°C° 0 mm 6 mps 750 mmHg 79%
01:00 -1°C° 0 mm 5 mps 751 mmHg 80%
02:00 -1°C° 0 mm 5 mps 751 mmHg 81%
03:00 -2°C° 0 mm 5 mps 752 mmHg 82%
04:00 -2°C° 0 mm 4 mps 752 mmHg 83%
05:00 -2°C° 0 mm 4 mps 752 mmHg 85%
06:00 -3°C° 0 mm 4 mps 753 mmHg 86%
07:00 -2°C° 0 mm 4 mps 753 mmHg 80%
08:00 -1°C° 0 mm 4 mps 754 mmHg 75%
09:00 0°C° 0 mm 4 mps 754 mmHg 69%
10:00 +3°C° 0 mm 4 mps 754 mmHg 64%
11:00 +4°C° 0 mm 4 mps 754 mmHg 59%
12:00 +5°C° 0 mm 4 mps 754 mmHg 54%
13:00 +5°C° 0 mm 4 mps 754 mmHg 52%
14:00 +7°C° 0 mm 3 mps 754 mmHg 50%
15:00 +7°C° 0 mm 3 mps 754 mmHg 48%
16:00 +5°C° 0 mm 3 mps 754 mmHg 53%
17:00 +5°C° 0 mm 2 mps 754 mmHg 58%
18:00 +4°C° 0 mm 2 mps 754 mmHg 63%
19:00 +3°C° 0 mm 2 mps 754 mmHg 66%
20:00 +4°C° 0 mm 1 mps 754 mmHg 70%
21:00 +3°C° 0 mm 1 mps 754 mmHg 73%
22:00 +3°C° 0 mm 1 mps 754 mmHg 74%
23:00 +2°C° 0 mm 1 mps 753 mmHg 76%

1 October, Thursday

Time Temperature Precipitation Wind Pressure Humidity
00:00 +1°C° 0 mm 0 mps 753 mmHg 78%
01:00 +2°C° 0 mm 1 mps 753 mmHg 78%
02:00 +2°C° 0 mm 1 mps 753 mmHg 78%
03:00 +2°C° 0 mm 1 mps 753 mmHg 79%
04:00 +2°C° 0 mm 1 mps 752 mmHg 80%
05:00 +2°C° 0 mm 1 mps 752 mmHg 81%
06:00 +1°C° 0 mm 1 mps 752 mmHg 82%
07:00 +3°C° 0 mm 1 mps 752 mmHg 77%
08:00 +3°C° 0 mm 2 mps 752 mmHg 72%
09:00 +4°C° 0 mm 2 mps 752 mmHg 67%
10:00 +5°C° 0 mm 2 mps 752 mmHg 64%
11:00 +6°C° 0 mm 2 mps 752 mmHg 60%
12:00 +6°C° 0 mm 2 mps 752 mmHg 57%
13:00 +7°C° 0 mm 2 mps 752 mmHg 59%
14:00 +7°C° 0 mm 2 mps 752 mmHg 61%
15:00 +7°C° 0 mm 2 mps 751 mmHg 62%
16:00 +6°C° 0 mm 2 mps 751 mmHg 67%
17:00 +6°C° 0 mm 2 mps 751 mmHg 72%
18:00 +5°C° 0 mm 2 mps 751 mmHg 76%
19:00 +5°C° 0 mm 2 mps 752 mmHg 80%
20:00 +5°C° 0 mm 1 mps 752 mmHg 83%
21:00 +5°C° 0 mm 1 mps 752 mmHg 87%
22:00 +5°C° 0.1 mm 1 mps 752 mmHg 88%
23:00 +4°C° 0.1 mm 1 mps 752 mmHg 90%
Show more